Location: Alafon
(8.4500°N, 4.2333°E)
Time: 01:45:03
(UTC+00:00)

Cosmos 1908 - Pass Details

Date: 05 July 2020
Orbit: 513 x 529 km, 82.5° (Epoch: 06 August)

Event Time Altitude Azimuth Distance (km) Brightness Sun altitude
Rises 19:24:59 0° 350° (N) 2,654 7.4 -18.6°
Reaches altitude 10° 19:27:08 10° 347° (NNW) 1,767 6.4 -19.1°
Maximum altitude 19:30:57 60° 267° (W) 605 3.7 -19.9°
Enters shadow 19:33:18 22° 192° (SSW) 1,182 4.8 -20.4°
